Hourly Data Report for September 24, 2017

All times are specified in Local Standard Time (LST). Add 1 hour to adjust for Daylight Saving Time where and when it is observed.

KAMLOOPS A
BRITISH COLUMBIA

50°42'09.000" N
120°26'55.000" W
345.30 m
1163781
71887
YKA

Download Data

Hourly Data (September 2017)
Hourly Data Report for September 24, 2017
Temp Definition
°C
Dew Point Temp Definition
°C
Rel Hum Definition
%
Wind Dir Definition
10's deg

Wind Spd Definition
km/h
Visibility Definition
km
Stn Press Definition
kPa
Hmdx Definition


Wind Chill Definition


Weather Definition


TIME
00:00 Legend Double Dagger 13.5 3.8 51 7 12 64.4 97.77     LegendNANA
01:00 Legend Double Dagger 13.5 3.8 51 4 12 64.4 97.78     Cloudy
02:00 Legend Double Dagger 13.0 4.2 55 5 10 64.4 97.78     LegendNANA
03:00 Legend Double Dagger 12.7 4.6 58 7 7 64.4 97.78     LegendNANA
04:00 Legend Double Dagger 12.8 4.6 57 9 15 64.4 97.79     Cloudy
05:00 Legend Double Dagger 12.6 4.9 59 11 6 64.4 97.83     LegendNANA
06:00 Legend Double Dagger 11.0 6.8 75 36 2 40.2 97.86     Rain
07:00 Legend Double Dagger 12.3 7.4 72 12 4 64.4 97.88     Cloudy
08:00 Legend Double Dagger 12.8 6.6 66 9 8 64.4 97.88     LegendNANA
09:00 Legend Double Dagger 14.3 6.3 58 9 11 64.4 97.87     LegendNANA
10:00 Legend Double Dagger 15.5 7.0 57 14 5 64.4 97.85     Mostly Cloudy
11:00 Legend Double Dagger 16.8 7.2 53 16 4 64.4 97.79     LegendNANA
12:00 Legend Double Dagger 18.1 7.3 49 14 8 64.4 97.72     LegendNANA
13:00 Legend Double Dagger 19.1 8.2 49 12 10 64.4 97.65     Mostly Cloudy
14:00 Legend Double Dagger 20.2 8.0 45 11 13 64.4 97.59     LegendNANA
15:00 Legend Double Dagger 20.8 7.8 43 11 17 64.4 97.52     LegendNANA
16:00 Legend Double Dagger 21.1 8.5 44 9 16 64.4 97.46     Mostly Cloudy
17:00 Legend Double Dagger 19.3 7.8 47 12 20 64.4 97.46     LegendNANA
18:00 Legend Double Dagger 18.2 7.8 50 10 19 64.4 97.48     LegendNANA
19:00 Legend Double Dagger 17.4 7.7 53 10 18 64.4 97.52     Mostly Cloudy
20:00 Legend Double Dagger 16.5 10.0 65 11 17 64.4 97.54     LegendNANA
21:00 Legend Double Dagger 14.3 8.2 67 8 13 64.4 97.55     LegendNANA
22:00 Legend Double Dagger 14.2 9.3 72 13 10 64.4 97.56     Clear
23:00 Legend Double Dagger 12.6 8.8 77 9 14 64.4 97.60     LegendNANA

Notes on Data Quality.

Legend

  • E = Estimated
  • M = Missing
  • NA = Not Available
  • ‡ = Partner data that is not subject to review by the National Climate Archives
Date modified: